Estación de Petorca
Ultimos registro cada 15 minutos 57
| N° | Estación | Fecha / Hora | Temperatura | Humedad | Lluvia | Velocidad | Dirección | Radiación | Presion |
| 57 | Petorca | 03-09-2026 14:00 | 21,6 | 61,3 | 0 | 3 | 225 | 750,6 | 987,8 |
| 56 | Petorca | 03-09-2026 13:45 | 21,4 | 59,3 | 0 | 3 | 222 | 770,6 | 987,9 |
| 55 | Petorca | 03-09-2026 13:30 | 21,6 | 60,8 | 0 | 3 | 219 | 785,6 | 988,2 |
| 54 | Petorca | 03-09-2026 13:15 | 21,3 | 63,1 | 0 | 2,5 | 227 | 795,6 | 988,5 |
| 53 | Petorca | 03-09-2026 13:00 | 20,8 | 62,7 | 0 | 3 | 226 | 801,9 | 988,4 |
| 52 | Petorca | 03-09-2026 12:45 | 20,6 | 66,5 | 0 | 3 | 223 | 801,9 | 988,7 |
| 51 | Petorca | 03-09-2026 12:30 | 20,2 | 64,2 | 0 | 3 | 223 | 796,9 | 988,8 |
| 50 | Petorca | 03-09-2026 12:15 | 19,9 | 64,8 | 0 | 2 | 223 | 793,1 | 988,9 |
| 49 | Petorca | 03-09-2026 12:00 | 19,2 | 68,2 | 0 | 2 | 223 | 780,6 | 989 |
| 48 | Petorca | 03-09-2026 11:45 | 19,4 | 69,1 | 0 | 1,5 | 227 | 765,6 | 989,1 |
| 47 | Petorca | 03-09-2026 11:30 | 18,9 | 68,7 | 0 | 2 | 234 | 750,6 | 989,3 |
| 46 | Petorca | 03-09-2026 11:15 | 18,9 | 67,6 | 0 | 1 | 225 | 728,1 | 989,3 |
| 45 | Petorca | 03-09-2026 11:00 | 18,9 | 65,7 | 0 | 0,5 | 219 | 700,6 | 989,5 |
| 44 | Petorca | 03-09-2026 10:45 | 18,5 | 61 | 0 | 0,5 | 226 | 673,1 | 989,7 |
| 43 | Petorca | 03-09-2026 10:30 | 18,2 | 61,2 | 0 | 0 | 251 | 641,9 | 989,6 |
| 42 | Petorca | 03-09-2026 10:15 | 18,3 | 57,9 | 0 | 0 | 261 | 606,9 | 989,5 |
| 41 | Petorca | 03-09-2026 10:00 | 16,4 | 67,9 | 0 | 0 | 215 | 565,6 | 989,6 |
| 40 | Petorca | 03-09-2026 09:45 | 15,5 | 74,3 | 0 | 0 | 241 | 521,9 | 989,8 |
| 39 | Petorca | 03-09-2026 09:30 | 15,3 | 72 | 0 | 0 | 70 | 478,1 | 989,8 |
| 38 | Petorca | 03-09-2026 09:15 | 14,5 | 74,3 | 0 | 0 | 111 | 429,4 | 989,9 |
| 37 | Petorca | 03-09-2026 09:00 | 14,3 | 74,6 | 0 | 0 | 72 | 380,6 | 989,8 |
| 36 | Petorca | 03-09-2026 08:45 | 12,5 | 79,8 | 0 | 0 | 124 | 330,6 | 989,9 |
| 35 | Petorca | 03-09-2026 08:30 | 12,2 | 84,1 | 0 | 0 | 112 | 278,1 | 989,9 |
| 34 | Petorca | 03-09-2026 08:15 | 9,9 | 90,4 | 0 | 0 | 25 | 229,4 | 990 |
| 33 | Petorca | 03-09-2026 08:00 | 6,6 | 95,9 | 0 | 0 | 10 | 19,4 | 989,9 |
| 32 | Petorca | 03-09-2026 07:45 | 5,9 | 96 | 0 | 0 | 37 | 16,9 | 989,8 |
| 31 | Petorca | 03-09-2026 07:30 | 5,9 | 96,1 | 0 | 0 | 15 | 9,4 | 989,7 |
| 30 | Petorca | 03-09-2026 07:15 | 5,9 | 96,2 | 0 | 0 | 15 | 4,4 | 989,7 |
| 29 | Petorca | 03-09-2026 07:00 | 5,8 | 96,4 | 0 | 0 | 25 | 1,9 | 989,6 |
| 28 | Petorca | 03-09-2026 06:45 | 5,6 | 95,9 | 0 | 0 | 20 | 0,6 | 989,4 |
| 27 | Petorca | 03-09-2026 06:30 | 5,5 | 95,3 | 0 | 0 | 358 | 0,6 | 989,5 |
| 26 | Petorca | 03-09-2026 06:15 | 6,1 | 95,5 | 0 | 0 | 0 | 0,6 | 989,4 |
| 25 | Petorca | 03-09-2026 06:00 | 6,7 | 95 | 0 | 0 | 39 | 0,6 | 989,3 |
| 24 | Petorca | 03-09-2026 05:45 | 7 | 95,5 | 0 | 0 | 1 | 0,6 | 989,4 |
| 23 | Petorca | 03-09-2026 05:30 | 6,3 | 95,5 | 0 | 0 | 29 | 0,6 | 989,4 |
| 22 | Petorca | 03-09-2026 05:15 | 6,6 | 95,3 | 0 | 0 | 38 | 0,6 | 989,3 |
| 21 | Petorca | 03-09-2026 05:00 | 6,7 | 94,6 | 0 | 0 | 35 | 0,6 | 989,5 |
| 20 | Petorca | 03-09-2026 04:45 | 7,5 | 94,1 | 0 | 0 | 21 | 0,6 | 989,5 |
| 19 | Petorca | 03-09-2026 04:30 | 7,8 | 92,2 | 0 | 0 | 358 | 0,6 | 989,5 |
| 18 | Petorca | 03-09-2026 04:15 | 7,1 | 92,6 | 0 | 0 | 10 | 0,6 | 989,4 |
| 17 | Petorca | 03-09-2026 04:00 | 7,3 | 92,3 | 0 | 0 | 18 | 0,6 | 989,5 |
| 16 | Petorca | 03-09-2026 03:45 | 7,2 | 93,7 | 0 | 0 | 8 | 0,6 | 989,4 |
| 15 | Petorca | 03-09-2026 03:30 | 7,5 | 93 | 0 | 0 | 21 | 0,6 | 989,4 |
| 14 | Petorca | 03-09-2026 03:15 | 7,7 | 94,2 | 0 | 0 | 37 | 0,6 | 989,4 |
| 13 | Petorca | 03-09-2026 03:00 | 6,9 | 95,4 | 0 | 0 | 37 | 0,6 | 989,5 |
| 12 | Petorca | 03-09-2026 02:45 | 7,1 | 95,5 | 0 | 0 | 24 | 0,6 | 989,5 |
| 11 | Petorca | 03-09-2026 02:30 | 7,4 | 95,1 | 0 | 0 | 357 | 0,6 | 989,7 |
| 10 | Petorca | 03-09-2026 02:15 | 8,2 | 95,6 | 0 | 0 | 357 | 0,6 | 989,6 |
| 9 | Petorca | 03-09-2026 02:00 | 7,7 | 93,1 | 0 | 0 | 35 | 0,6 | 989,6 |
| 8 | Petorca | 03-09-2026 01:45 | 7,8 | 93,8 | 0 | 0 | 41 | 0,6 | 989,7 |
| 7 | Petorca | 03-09-2026 01:30 | 8,3 | 93,4 | 0 | 0 | 10 | 0,6 | 989,6 |
| 6 | Petorca | 03-09-2026 01:15 | 8,3 | 92 | 0 | 0 | 7 | 0,6 | 989,7 |
| 5 | Petorca | 03-09-2026 01:00 | 8,9 | 89,6 | 0 | 1 | 14 | 0,6 | 989,6 |
| 4 | Petorca | 03-09-2026 00:45 | 8,7 | 94,2 | 0 | 0,5 | 37 | 0,6 | 989,5 |
| 3 | Petorca | 03-09-2026 00:30 | 8,3 | 95,8 | 0 | 0,5 | 17 | 0,6 | 989,6 |
| 2 | Petorca | 03-09-2026 00:15 | 8,3 | 96,4 | 0 | 0 | 29 | 0,6 | 989,7 |
| 1 | Petorca | 03-09-2026 00:00 | 8,2 | 96,4 | 0 | 0 | 21 | 0,6 | 989,6 |